STARLINK-1234 (45190 NORAD) Tracking and Keplerian Element Data

This shows tracking and keplerian element data for the satellite.

Feedback or suggestion? Click here.




ElementValue
Catalog45190
NameSTARLINK-1234
Epoch Orbit162
Epoch Day93.91667824
Epoch Year2020
RAAN40.8821
Inclination53.0011
Eccentricity7.59E-05
Argument of Perigee88.7701
Mean Anonmoly277.5523
Mean Motion15.67253701
Decay Rate-6.998E-05
L11 45190U 20012N 20093.91667824 -.00006998 00000-0 -58745-4 0 9998
L22 45190 53.0011 40.8821 0000759 88.7701 277.5523 15.67253701 1623

Live tracking and technical data element details for STARLINK-1234 (NORAD 45190). STARLINK-1234 can be tracked NOW for your location showing map with azimuth and elevation plus other details from your city location.

Track the satellite on the map from your city or location and see movement details for azimuth, elevation, latitude, longitude, range, height, and movement on the map or in text.







IsCatalogInMostPopularTable: catalog: 45190, numindb: 8
Update: records affected: 1



GetName: 45190 STARLINK-1234

Hit Count: updated at: Tue, 07 Apr 2020 15:37:47 GMT